Theta_e
300 300 301 302 302 302 302 304 306 307 308 310 307 307 311 308 297 295 304 306 303 309 315 317 318 319 319 320 320 323 324 325 326 326 326 327 328 329 331 331 332 332 331 332 333 334 336 337 337 339 341 342 344 346 347 348 349 349 351 350 350 350 350 349 350 350 351 351 351 352 349 347 348 349 349 350 350 351 351 348 345 347 349 349 348 346 346
298 299 300 302 300 300 307 308 308 309 311 310 311 310 312 311 308 308 310 307 309 314 317 319 320 321 322 322 324 325 324 324 326 324 325 326 327 329 329 331 333 335 335 334 334 335 336 336 337 339 341 343 344 345 346 348 349 350 350 350 349 349 349 349 350 350 350 351 349 349 346 344 346 346 347 348 348 348 348 347 345 346 347 349 349 348 346
297 299 302 302 304 306 306 306 309 309 309 311 312 312 312 315 311 312 311 309 309 317 321 321 322 321 322 326 324 323 322 325 326 324 324 326 327 327 329 331 333 336 338 337 336 336 337 338 338 340 343 344 345 346 347 348 348 350 351 349 349 349 349 349 349 349 349 349 348 347 343 344 345 345 345 345 346 346 346 346 345 346 346 345 347 349 348
293 297 300 301 302 307 305 305 306 306 307 307 311 310 314 312 309 311 312 311 311 318 321 321 321 321 320 320 323 323 324 325 326 324 324 325 325 326 327 330 335 339 340 338 337 337 338 339 340 341 343 344 345 345 347 347 348 350 350 349 348 348 349 349 349 348 349 348 345 342 342 343 344 344 345 345 345 345 345 344 344 347 346 346 347 348 347
290 295 299 300 299 299 299 301 304 306 307 310 313 315 317 315 315 310 309 311 317 319 322 319 319 320 320 320 322 323 324 324 325 325 325 325 326 326 326 331 336 337 338 338 338 339 340 341 341 342 343 344 344 345 346 346 347 348 347 347 347 347 347 348 348 348 348 346 341 339 341 342 342 343 344 345 345 345 344 344 346 347 346 347 346 346 345
289 294 297 299 294 289 292 306 310 309 308 309 310 311 314 316 317 314 317 317 319 320 320 318 318 318 319 320 322 327 326 326 326 326 326 326 326 327 327 328 331 335 338 338 338 338 339 341 342 342 344 343 342 344 344 344 345 344 344 344 344 344 345 347 348 347 347 343 340 340 340 340 341 343 344 344 344 345 345 346 345 345 345 344 345 344 344
289 292 295 294 287 289 301 310 312 315 314 312 313 313 315 316 317 317 317 317 318 319 320 320 321 321 322 324 324 324 326 326 326 327 328 327 328 328 327 328 330 332 335 338 338 339 339 341 341 341 341 342 341 341 342 342 342 341 342 342 342 344 345 346 346 346 346 345 343 340 341 341 342 343 344 345 344 344 345 345 344 343 344 343 344 344 345
291 291 288 285 286 298 307 312 312 315 315 314 312 310 314 315 316 317 315 317 318 319 320 321 323 322 322 324 325 325 326 327 326 326 327 329 330 329 329 329 328 331 333 336 338 339 341 342 341 341 340 341 341 340 341 340 340 340 341 341 342 344 344 345 346 347 347 346 346 345 343 344 344 345 345 345 345 346 344 343 343 343 342 342 343 342 342
289 288 289 292 297 299 302 304 307 310 306 309 307 302 308 316 317 317 317 318 318 319 320 321 322 322 322 320 321 324 326 327 328 328 328 330 331 331 330 331 330 331 333 335 338 340 340 340 341 340 340 341 340 339 339 340 340 340 341 342 343 345 345 345 347 348 347 347 346 346 347 346 346 346 345 346 346 344 341 341 341 340 340 342 343 341 342
292 291 288 287 288 289 294 304 314 318 316 316 315 310 307 318 318 319 318 317 318 319 320 321 322 321 317 313 316 322 325 328 328 329 330 332 333 333 332 332 332 333 335 337 341 340 339 340 340 340 340 340 339 339 340 341 341 341 342 343 345 346 345 346 347 348 348 348 347 347 347 347 347 347 346 346 346 346 341 340 340 341 342 341 342 342 342
293 290 287 285 286 291 300 306 312 315 318 317 316 309 303 317 317 319 319 318 319 319 319 321 322 316 311 311 316 322 326 327 329 328 330 332 334 334 333 332 333 335 336 339 342 342 342 340 341 342 342 342 341 340 341 342 343 342 343 345 346 346 346 347 348 348 349 349 348 348 347 347 347 346 345 345 346 345 343 342 343 342 344 342 341 341 343
293 287 288 288 291 295 305 311 313 315 319 317 311 296 299 313 318 319 319 318 319 319 320 322 320 315 311 313 319 325 327 328 329 330 329 330 333 334 335 335 336 336 339 343 344 344 343 342 344 345 345 344 344 343 344 344 343 343 344 346 348 348 347 347 347 348 349 349 348 348 347 346 346 346 345 345 344 343 342 341 342 343 346 343 341 342 343
294 296 288 291 296 305 309 311 314 316 317 312 298 293 306 317 319 320 320 319 320 322 321 322 317 321 321 322 325 327 328 328 329 331 332 333 334 335 335 336 340 339 342 347 345 345 346 347 347 347 346 345 344 345 345 344 343 345 347 348 347 347 347 347 347 348 349 349 348 348 348 346 347 347 346 345 344 343 342 342 343 343 343 341 339 338 338
294 293 291 290 293 301 309 314 316 317 311 298 296 311 318 319 319 320 320 319 321 322 322 322 322 324 327 328 328 328 328 328 329 330 331 335 336 337 339 341 341 341 346 348 348 348 349 349 349 348 347 345 345 345 344 343 344 346 346 347 347 346 346 347 347 347 347 347 349 347 347 348 347 344 344 346 346 343 342 342 341 340 342 343 339 337 337
293 290 288 287 285 298 313 313 312 315 305 306 314 317 319 320 320 320 320 321 321 322 321 323 324 325 326 327 328 328 329 329 329 330 330 333 335 336 338 339 342 345 347 347 347 348 349 349 349 348 347 345 345 344 343 343 345 346 346 346 346 345 346 347 347 347 348 350 349 349 349 348 345 343 344 345 344 343 340 340 340 339 338 338 337 337 340
290 286 288 288 297 306 312 312 305 311 315 318 319 318 316 320 320 320 320 320 322 323 322 323 324 324 325 327 329 329 330 330 331 331 332 334 336 337 339 342 345 348 347 345 343 344 345 346 346 347 347 345 345 343 343 346 346 347 346 345 345 346 347 347 347 348 349 349 349 349 348 346 345 344 343 342 342 341 340 341 340 340 337 338 337 337 340
297 293 294 301 305 309 312 314 314 316 318 320 321 321 320 319 320 322 320 320 322 324 323 323 324 324 326 326 328 328 329 330 331 331 334 336 336 336 338 340 342 343 342 340 340 339 339 341 341 342 345 346 345 343 345 347 347 346 346 346 345 345 346 347 347 348 348 348 348 348 347 347 346 344 343 344 342 341 341 338 338 339 339 342 339 338 340
303 305 307 311 311 312 313 315 318 318 320 321 322 322 319 320 321 321 320 322 323 324 325 323 324 324 325 326 328 329 329 330 331 333 334 335 336 336 337 338 340 339 339 339 338 336 336 338 338 339 341 345 344 344 347 348 347 346 347 346 346 345 346 347 347 348 346 346 346 346 345 345 345 343 344 343 341 338 338 339 339 338 341 342 341 339 340
295 293 305 307 309 311 314 314 316 319 322 321 322 320 320 320 321 322 323 324 324 324 325 324 324 324 326 327 328 330 329 330 330 330 332 334 335 336 336 337 337 336 338 338 337 335 334 336 338 339 339 340 343 346 348 348 348 347 347 347 347 346 346 346 345 345 344 344 343 341 340 340 339 338 339 341 341 339 336 337 338 341 342 341 338 338 338
296 296 303 308 311 312 313 314 314 315 316 318 319 320 321 321 323 324 324 326 325 325 324 325 325 325 327 327 328 329 330 330 330 329 330 331 333 332 334 336 337 337 336 336 335 335 334 335 337 338 339 340 343 348 350 350 348 347 347 347 345 344 344 345 345 345 348 350 338 329 324 323 323 323 325 328 326 325 324 324 331 334 335 336 336 337 338
302 304 305 306 310 311 314 316 315 316 316 317 318 320 321 322 322 322 323 325 325 325 325 326 326 326 328 329 330 330 331 331 330 329 331 332 331 331 332 334 336 336 336 336 335 335 335 335 336 337 338 341 345 348 349 348 347 347 348 348 345 343 342 344 347 349 345 339 333 326 321 317 314 313 315 319 323 320 317 315 319 325 332 331 332 334 333
295 298 303 306 303 303 309 312 314 315 317 317 318 319 319 320 320 321 322 323 325 326 327 326 327 327 328 330 331 331 331 330 329 330 330 331 332 331 332 332 333 335 337 335 335 335 334 335 336 337 338 340 344 348 348 347 347 348 347 344 341 339 340 342 344 343 339 335 332 328 323 320 317 316 315 307 310 320 318 314 307 303 309 324 325 324 317
297 303 306 308 309 309 310 312 315 316 317 318 318 318 319 320 321 322 322 323 324 324 326 328 328 328 329 330 332 331 330 329 330 330 330 330 331 331 332 332 331 332 333 336 335 334 334 336 337 337 338 339 340 342 343 342 341 340 341 341 339 337 340 339 340 339 336 334 332 328 325 323 322 321 320 315 300 303 311 310 304 298 298 301 307 315 322
307 309 310 310 308 309 312 315 316 317 318 318 318 319 320 320 321 323 324 324 324 324 326 327 329 329 329 330 331 330 329 329 329 330 331 333 333 332 332 330 331 332 333 334 333 334 334 336 336 336 337 337 337 338 338 337 336 334 333 334 336 338 337 340 343 339 333 335 332 328 326 326 326 326 325 323 321 304 301 305 302 299 298 298 299 301 306
308 311 312 313 313 314 315 316 316 318 320 321 319 318 319 320 323 325 325 326 327 326 326 326 328 329 328 329 330 330 330 329 330 331 331 332 334 332 332 332 331 332 332 332 332 332 333 335 336 337 336 336 337 337 337 338 337 335 334 334 335 337 340 343 342 342 336 335 333 330 328 327 327 327 327 327 324 322 316 302 302 300 299 298 298 298 299
313 313 314 314 314 315 316 316 316 316 317 318 318 319 321 325 327 328 327 326 326 327 327 327 327 328 329 329 330 331 331 330 332 332 330 330 332 333 333 332 332 332 332 333 333 333 333 335 335 335 334 335 335 336 337 337 337 335 336 337 337 337 338 339 338 338 337 335 333 331 331 329 328 329 329 328 328 328 327 327 326 313 304 300 299 301 298
313 314 312 311 310 311 313 312 313 317 318 319 319 319 321 322 326 326 326 327 328 329 329 328 328 328 329 330 331 333 332 330 331 330 330 331 332 332 333 332 333 334 335 335 335 337 337 336 336 335 334 336 337 339 339 339 338 338 339 340 341 345 344 340 334 335 335 336 335 333 333 333 334 332 331 332 333 332 330 327 325 323 323 320 307 299 307
313 312 312 308 308 310 312 315 317 318 318 318 318 320 321 324 324 324 324 324 325 326 327 328 328 327 327 330 331 332 333 331 328 329 330 331 333 334 333 333 334 335 334 333 333 336 337 336 336 335 334 336 338 339 340 340 339 338 337 336 335 336 337 337 335 335 335 336 337 337 337 336 335 334 335 335 333 331 328 329 327 324 321 318 318 314 307
312 312 313 313 314 315 316 316 316 316 317 319 321 320 322 323 323 322 322 323 324 325 325 327 328 329 328 329 330 330 331 330 328 329 329 331 334 333 333 333 333 333 332 332 331 332 333 332 332 332 332 334 335 337 338 338 337 336 335 334 334 334 334 335 336 336 337 337 338 339 339 338 337 336 336 334 333 330 330 328 327 325 322 322 323 323 321
312 314 314 314 315 315 314 314 314 315 316 317 318 318 321 321 320 320 321 323 324 324 325 326 326 326 328 328 329 330 331 331 329 330 331 333 333 333 333 332 332 331 331 330 331 332 332 331 331 331 331 333 334 335 335 336 335 334 334 333 333 333 333 334 335 335 336 338 339 338 338 336 336 335 333 331 331 331 329 328 328 327 326 327 326 322 322
314 314 313 314 314 314 313 313 314 315 316 316 317 317 319 319 319 319 320 322 323 324 324 325 326 327 328 328 330 331 332 331 331 331 332 332 332 332 332 332 330 329 329 329 331 331 331 330 330 329 331 333 334 334 335 334 333 333 332 332 333 331 332 332 333 334 335 335 334 333 332 331 331 331 330 328 327 326 325 326 325 325 325 324 324 324 324
312 313 313 313 313 313 313 314 313 314 315 316 316 316 317 317 317 319 322 323 324 324 325 326 326 327 328 329 330 331 331 330 330 330 330 330 331 331 331 330 330 330 329 329 330 330 331 330 329 330 332 333 334 334 333 332 332 332 332 334 331 332 333 333 335 335 336 335 333 331 330 328 327 328 328 326 324 324 324 323 322 322 322 321 320 319 321
311 311 313 314 315 315 315 315 313 314 315 315 316 317 318 319 320 323 324 325 325 325 325 326 327 327 327 328 329 328 329 329 329 329 328 328 328 329 329 329 328 328 327 328 330 331 331 330 330 332 333 333 333 333 333 331 331 330 330 331 332 333 334 330 331 332 332 331 329 328 329 328 327 327 326 325 325 324 322 321 321 320 318 317 316 315 313
312 313 314 316 315 314 314 315 317 316 316 317 318 318 319 320 322 324 325 326 326 326 326 327 326 327 328 328 327 327 328 327 325 325 325 326 327 328 329 329 328 328 328 328 329 330 331 331 331 331 332 332 331 331 331 330 329 329 329 329 328 327 328 329 330 330 329 330 329 330 329 328 327 326 326 325 324 323 322 321 320 318 316 315 315 315 308
316 316 317 317 317 317 318 317 316 316 316 316 317 319 319 320 323 325 327 326 325 327 328 327 327 328 328 328 328 327 326 325 325 325 325 326 326 326 326 326 325 325 325 325 326 327 330 331 331 330 330 330 329 329 329 328 328 327 327 328 328 327 327 328 326 326 326 326 327 326 326 326 327 328 326 324 322 321 320 319 318 317 315 314 314 316 313
317 316 317 317 317 318 317 317 317 317 317 317 318 319 319 320 324 325 324 323 326 328 329 327 327 326 327 327 326 325 324 324 324 324 324 324 324 324 324 323 323 322 323 323 326 328 330 331 333 333 329 329 328 328 327 326 326 326 327 327 327 328 328 327 326 325 326 325 325 325 325 326 324 323 322 321 320 320 319 317 317 316 314 314 314 313 313
318 317 317 318 318 318 317 317 317 317 317 318 318 319 320 322 325 327 327 327 327 327 327 326 325 325 325 325 326 326 325 324 323 322 322 322 322 322 322 322 322 322 323 323 324 330 333 334 334 334 330 328 327 327 328 329 323 322 323 323 323 324 323 322 323 321 321 322 321 321 321 319 317 319 320 319 319 319 318 317 317 316 315 314 314 313 313
319 319 318 318 318 318 318 318 320 319 319 320 321 322 324 325 326 327 326 326 326 326 326 326 326 325 325 325 324 322 322 321 320 319 319 319 319 318 318 318 318 320 320 320 325 330 330 332 332 329 326 327 327 327 328 329 327 320 320 321 321 321 321 320 319 319 317 317 318 315 314 314 313 314 315 316 317 318 317 317 316 315 314 314 314 313 312
320 320 318 318 318 318 318 319 319 320 322 321 322 322 324 327 327 327 325 325 326 327 326 325 325 324 322 320 319 319 318 318 318 317 316 316 317 316 315 316 317 318 320 323 326 327 329 328 327 325 325 325 325 326 327 327 324 317 318 318 319 320 319 318 317 316 316 315 313 313 312 313 313 312 313 314 315 318 318 316 315 314 312 312 311 311 311
320 319 319 318 317 318 318 317 317 318 320 321 322 323 325 326 326 325 325 324 325 326 325 324 322 320 319 318 316 315 316 316 316 316 316 316 316 315 314 315 317 320 323 325 324 324 325 325 322 319 319 320 320 320 322 321 320 316 315 315 316 317 317 317 316 315 315 315 315 315 313 313 313 313 312 312 312 311 311 311 311 311 310 311 310 311 312
320 320 320 318 318 318 317 317 318 320 322 323 323 325 327 327 326 324 323 323 323 324 323 322 321 319 318 317 317 317 317 317 316 315 316 315 314 313 312 311 316 319 321 320 321 321 321 320 318 316 316 316 317 319 316 319 315 313 314 314 314 314 314 314 314 314 313 313 313 311 311 311 311 310 310 309 309 308 309 309 308 309 309 310 310 311 311
320 322 321 319 318 317 318 319 320 321 323 324 326 326 327 327 325 323 323 322 322 321 321 321 321 319 318 317 316 315 314 314 314 315 315 314 313 312 311 312 317 319 321 320 320 318 317 317 317 318 315 316 317 319 317 315 311 312 312 313 314 315 314 313 313 311 312 311 310 310 310 310 309 309 309 309 308 309 308 308 308 308 308 309 309 309 310
320 321 321 319 318 317 317 319 319 320 322 323 323 323 324 325 324 322 321 320 319 318 318 318 319 318 316 314 313 312 312 313 313 313 313 313 315 314 313 314 317 318 320 318 316 314 314 314 315 315 318 318 317 318 315 310 310 311 311 312 313 312 311 311 310 310 309 308 308 308 308 308 307 307 307 306 307 307 307 307 307 308 308 308 309 309 310
321 322 321 319 318 318 319 320 321 322 321 321 322 322 322 321 321 320 319 317 317 317 316 316 315 314 314 313 312 311 311 311 311 312 311 310 311 313 315 315 316 318 318 316 315 315 315 316 317 319 320 319 317 315 311 308 309 309 309 309 310 310 310 310 309 309 309 309 308 308 309 309 307 306 306 306 306 306 307 306 306 307 307 307 308 309 309
322 321 321 322 321 321 320 320 320 319 320 321 320 320 320 319 319 319 318 317 317 316 317 315 314 314 313 312 311 311 311 311 312 312 309 308 308 309 315 318 316 316 317 317 314 315 315 317 319 320 319 318 316 313 307 307 307 308 308 308 308 309 309 309 309 309 309 309 309 309 309 308 308 308 306 307 308 307 307 307 307 308 309 308 308 308 309
321 322 322 323 320 320 320 321 321 321 320 319 318 319 319 318 318 317 316 315 314 314 314 313 312 312 311 311 311 311 311 311 311 311 310 309 308 309 315 317 317 318 319 318 316 317 318 321 320 319 318 317 315 309 307 308 308 307 307 308 308 309 308 309 309 309 309 309 309 308 308 308 308 307 307 308 309 308 308 309 309 309 308 308 309 308 308
320 320 320 320 320 320 320 320 320 319 318 317 315 315 317 317 316 315 314 313 312 312 311 311 311 311 311 311 312 310 310 309 310 312 313 314 318 318 319 319 320 318 316 314 315 315 316 317 319 318 317 315 312 306 306 306 306 306 307 307 308 307 308 308 308 308 308 308 309 310 310 308 307 306 309 310 309 310 309 311 310 309 308 309 309 311 311
318 318 318 319 318 319 318 317 316 315 314 314 314 314 315 314 314 313 312 311 309 309 309 309 310 310 310 309 310 310 310 309 307 307 309 310 310 311 313 314 318 321 320 321 320 321 321 321 320 318 317 313 309 306 307 306 307 307 307 307 306 307 307 307 307 308 308 310 312 310 309 308 308 307 308 309 308 309 309 309 309 309 309 308 309 309 309
317 317 318 318 318 317 316 315 314 313 313 314 314 313 314 313 312 311 310 309 308 308 307 307 308 309 310 313 311 309 311 311 309 307 311 313 315 315 317 320 321 320 316 315 316 317 320 319 318 317 316 313 306 306 307 308 309 310 309 308 308 308 307 307 306 307 307 309 308 309 308 308 307 306 307 308 309 308 309 309 309 308 308 309 308 308 308
316 317 316 316 315 315 314 313 312 312 314 314 313 313 314 313 309 308 309 307 308 309 305 305 305 306 306 307 308 309 310 312 312 313 313 312 313 315 317 318 319 322 320 315 316 316 319 320 319 317 313 308 308 309 308 308 309 310 310 312 311 309 311 309 312 310 308 310 309 309 309 309 307 307 309 308 308 308 308 309 308 309 310 311 310 309 309
314 314 314 316 316 316 316 314 314 314 313 314 314 315 314 312 311 311 310 309 307 306 305 305 305 305 306 307 309 310 312 313 315 317 314 315 317 320 320 318 318 319 317 314 313 311 311 313 315 318 314 311 309 310 310 311 312 312 315 310 311 312 311 310 310 310 309 310 309 309 309 309 308 308 308 308 309 309 310 309 309 310 309 309 309 309 309
312 313 314 315 315 315 315 315 315 315 314 314 313 313 312 312 311 311 312 311 307 305 305 305 305 306 307 309 310 311 312 312 312 313 317 314 313 313 318 318 313 314 313 312 310 311 312 316 322 324 318 310 308 309 315 317 313 311 313 316 315 314 313 314 312 310 310 311 312 311 310 310 309 309 309 309 309 309 309 309 309 309 309 309 308 308 308
Wind_Speed
4 4 5 6 4 3 3 2 4 7 2 9 5 0 2 2 3 6 6 4 1 3 9 12 10 10 12 13 12 4 1 2 5 7 6 4 2 1 0 1 3 4 7 9 9 10 10 9 9 7 7 6 5 5 5 6 6 7 7 7 6 6 5 6 6 5 5 5 7 8 7 5 6 5 5 1 4 4 6 7 7 6 5 1 2 0 3
4 4 3 5 3 3 1 4 7 6 3 8 6 7 6 7 4 3 7 2 3 1 12 11 13 13 10 9 5 2 6 4 5 5 5 4 3 3 5 6 5 4 5 4 3 3 5 8 8 8 8 8 8 9 8 8 8 7 8 9 9 9 9 8 6 5 5 5 8 9 8 4 5 5 4 2 4 3 4 6 6 5 3 3 3 3 3
3 3 4 3 5 0 2 4 9 11 5 2 7 5 5 8 4 6 7 2 2 1 8 11 10 7 9 5 5 4 3 5 4 3 3 4 5 6 5 5 6 6 5 3 1 1 0 1 4 5 6 7 7 8 7 8 8 7 8 8 8 7 6 6 6 6 6 6 8 9 9 5 6 5 3 1 2 2 4 6 5 5 5 6 6 5 5
4 2 5 5 4 2 2 7 12 12 10 6 8 6 5 5 7 8 7 6 6 9 11 10 6 10 11 9 4 4 4 3 3 4 5 7 8 6 5 4 5 5 6 5 4 3 4 5 5 6 6 6 7 7 7 7 6 6 5 5 6 6 5 4 4 4 4 7 10 10 9 8 8 2 1 1 1 2 1 6 2 2 3 3 4 5 5
2 3 3 6 3 3 3 4 4 6 5 5 7 4 6 8 7 4 6 5 6 11 11 13 14 13 11 9 8 6 5 4 4 4 3 3 3 4 5 4 4 4 4 4 4 4 4 5 5 4 5 6 6 6 6 4 5 6 6 5 4 4 4 5 5 5 5 8 10 12 9 7 4 3 4 2 3 3 2 5 6 4 2 1 2 3 4
3 5 6 2 2 1 3 1 0 1 5 7 4 5 6 9 8 3 4 5 9 10 10 11 13 13 11 7 6 4 3 5 5 5 3 2 2 2 2 3 2 1 3 5 5 5 5 5 5 5 5 6 5 5 5 5 5 4 5 4 4 4 3 4 5 5 5 8 9 12 10 10 7 5 5 6 4 4 3 4 5 5 4 3 3 4 4
3 5 5 2 1 5 1 1 2 3 6 10 6 10 9 10 11 10 8 9 11 11 9 8 7 8 8 5 2 7 5 4 5 4 3 4 4 3 3 2 2 1 3 5 6 6 5 6 6 7 6 6 6 6 5 6 5 6 5 5 4 4 3 3 5 6 7 7 11 13 10 8 7 7 7 6 7 6 5 5 4 4 5 4 3 3 3
1 1 2 1 2 3 2 1 8 10 4 8 7 2 7 9 10 10 8 10 11 11 13 12 10 7 6 4 2 5 5 7 7 7 7 7 5 5 5 5 4 4 5 6 6 6 5 6 6 6 7 7 7 6 5 5 5 5 5 5 5 4 4 4 5 6 7 7 9 10 11 8 7 7 6 6 6 5 4 3 4 4 3 2 3 3 3
1 1 0 4 3 3 6 3 6 7 4 8 8 4 4 5 8 10 9 10 11 12 11 11 12 8 2 2 3 2 9 8 6 6 7 8 8 6 4 6 6 4 3 5 5 5 4 4 5 5 6 7 7 7 6 5 5 6 6 6 5 4 5 5 6 6 7 7 7 9 9 9 9 7 6 6 7 6 6 5 5 4 4 4 4 4 4
2 2 1 3 2 1 2 2 2 2 0 4 6 4 4 3 8 8 11 11 12 12 12 12 14 6 2 5 6 7 10 9 10 9 7 7 7 5 2 3 4 3 3 3 5 6 6 5 5 5 5 6 7 7 7 7 7 6 6 6 5 5 5 6 6 7 7 6 7 8 10 10 9 7 5 4 6 6 7 7 6 5 5 3 2 2 3
2 2 1 2 2 0 2 3 4 7 2 4 6 3 3 1 10 8 10 11 11 11 10 13 12 8 5 5 7 7 12 14 9 10 9 8 6 4 0 3 4 2 3 3 3 4 6 8 7 7 7 6 6 7 6 6 5 5 5 5 5 5 5 5 5 6 7 7 6 7 8 9 7 7 6 5 4 4 3 3 3 2 2 3 3 3 3
1 3 1 1 2 1 2 5 6 8 5 3 2 4 1 6 11 10 9 11 11 11 10 10 8 5 6 8 10 14 15 12 10 8 10 10 7 3 4 4 4 2 0 3 4 4 5 7 7 8 7 7 7 7 6 5 4 4 3 3 3 3 4 4 4 5 6 8 7 7 7 6 6 6 5 4 3 2 2 2 1 1 0 1 2 2 1
2 2 0 1 2 0 1 6 9 5 2 3 1 5 2 7 9 9 9 10 10 10 12 8 9 5 4 9 12 15 14 13 12 9 8 8 2 2 4 3 3 1 1 2 4 5 5 7 7 6 7 8 7 6 6 6 4 3 3 3 4 4 3 4 4 5 5 6 6 5 5 5 5 5 4 4 4 3 3 2 2 2 2 1 2 2 2
2 0 0 1 2 1 1 2 4 2 5 1 3 1 5 8 11 9 8 10 7 6 9 8 8 10 11 12 12 13 12 10 9 9 8 4 4 3 4 5 4 1 1 3 4 4 6 7 7 7 6 7 7 7 7 7 5 4 5 5 4 4 5 4 4 4 4 4 5 4 4 5 5 4 3 3 3 4 3 4 3 3 2 2 2 2 2
2 4 1 1 0 1 4 7 3 3 1 2 1 4 6 6 9 10 10 7 9 5 7 8 10 13 13 11 11 12 13 11 11 11 8 2 5 4 6 6 2 3 4 5 5 5 5 6 6 7 8 9 9 8 7 6 6 6 5 5 5 5 5 5 4 4 4 5 5 4 4 4 5 4 4 4 4 4 5 4 4 4 3 2 3 4 4
1 1 1 1 3 4 2 3 1 2 2 3 3 3 7 7 5 6 6 7 8 8 7 8 10 11 12 12 11 14 13 12 10 9 2 5 5 2 4 7 6 6 5 5 4 5 4 4 4 5 7 8 7 9 8 7 7 6 6 6 6 6 5 5 4 5 5 5 5 5 5 5 5 5 4 4 4 3 4 4 3 3 2 1 2 2 3
1 1 3 6 4 5 4 2 4 4 7 4 6 5 7 8 7 4 5 8 9 8 8 8 7 10 9 10 10 9 10 11 11 7 3 7 8 7 8 9 9 8 7 5 3 1 1 4 4 4 5 8 8 7 7 8 8 7 7 7 6 6 6 5 5 5 5 5 5 4 4 4 5 4 4 3 3 2 3 3 2 3 2 2 2 1 2
4 3 6 3 4 4 6 4 5 5 5 4 4 5 6 7 8 7 7 8 9 9 7 8 9 6 8 11 12 12 9 8 8 5 1 5 7 7 7 8 10 11 9 7 6 4 1 2 3 3 3 6 11 8 8 8 8 8 8 7 6 6 6 5 5 6 7 6 5 5 5 4 4 3 4 3 3 2 3 3 2 2 2 1 1 1 2
3 1 1 2 5 7 6 6 6 5 5 5 3 5 5 8 9 9 8 7 8 8 8 7 9 11 8 10 10 8 7 8 7 6 5 2 2 6 8 8 10 11 11 10 9 7 6 4 5 6 6 4 6 8 9 7 7 8 7 7 6 6 5 5 5 5 6 5 5 5 5 4 4 4 4 3 4 4 3 3 2 1 1 1 1 2 2
2 4 4 6 7 6 6 5 4 6 7 6 5 5 7 8 9 9 10 8 8 6 7 7 8 10 9 9 9 9 9 7 7 5 6 6 6 7 4 3 6 9 11 11 9 9 7 7 7 5 3 2 4 7 9 7 6 7 7 7 6 5 5 5 4 4 5 8 7 5 5 5 5 5 5 4 4 4 2 1 1 1 2 2 2 2 2
6 3 3 4 7 1 4 4 5 6 5 6 9 9 8 8 8 9 9 6 8 7 8 7 7 10 10 8 8 9 8 6 5 5 5 5 4 2 2 4 3 6 7 7 8 8 6 4 1 2 1 3 4 9 9 8 6 7 7 7 6 6 5 5 4 4 4 5 5 5 5 7 8 7 5 5 4 4 4 2 2 2 4 3 3 3 4
3 1 4 3 4 5 8 9 10 10 9 6 8 9 8 7 8 8 10 11 6 6 6 7 7 10 9 8 7 8 6 3 1 2 5 5 5 6 8 10 13 9 2 6 6 6 4 2 2 2 3 3 4 8 10 9 8 7 7 6 6 5 4 4 4 4 4 4 5 5 5 6 7 9 12 10 7 4 4 7 8 5 4 4 3 4 5
4 6 6 3 4 7 9 10 10 9 9 7 8 9 9 9 8 7 7 10 11 8 6 5 7 9 8 10 8 7 5 3 2 4 7 6 4 3 7 10 11 13 9 6 5 2 2 3 4 2 5 2 6 7 10 11 11 10 8 6 5 4 3 3 3 4 4 4 4 5 5 5 7 8 7 8 12 11 9 8 9 11 12 11 10 7 6
6 7 7 3 2 5 8 9 9 10 8 6 9 9 8 8 9 7 7 7 9 10 9 9 6 7 8 9 8 8 5 3 1 4 5 3 3 2 2 8 10 3 6 7 6 5 4 5 5 3 5 4 6 7 9 11 11 10 9 7 5 3 2 2 3 4 4 5 5 5 5 5 5 7 8 8 7 9 9 9 11 13 13 14 13 13 11
5 3 3 3 5 8 9 9 9 9 9 6 7 9 10 10 9 6 7 8 6 7 8 10 10 6 6 8 6 8 5 2 2 3 5 5 4 6 4 2 5 9 6 5 5 4 5 5 4 3 2 5 0 6 6 9 11 11 10 9 5 1 0 2 3 4 4 4 4 5 5 6 4 4 4 6 8 6 6 7 13 15 14 13 14 13 14
6 7 6 5 5 8 8 6 8 6 7 7 7 8 9 8 8 7 7 7 8 6 7 8 10 10 6 8 7 7 6 5 4 4 5 5 3 5 8 9 6 6 9 8 5 3 4 5 5 3 1 2 3 3 7 8 10 9 8 9 8 3 2 3 3 3 3 4 5 4 4 4 5 4 4 5 7 7 7 4 5 9 13 15 12 12 13
3 4 3 7 5 6 4 4 7 10 12 11 10 10 10 8 8 7 7 6 7 7 7 8 9 10 9 7 7 7 8 5 4 4 5 6 6 6 8 9 11 9 10 10 7 4 5 5 6 5 3 3 4 4 3 9 11 11 10 10 7 7 8 5 4 4 4 4 5 5 5 5 5 6 7 6 6 5 4 5 6 7 6 8 11 11 9
5 4 1 3 8 8 8 9 10 11 11 11 10 9 9 6 6 6 6 6 6 5 5 7 9 10 10 8 7 7 5 5 6 5 5 5 5 4 3 6 9 12 10 12 10 7 7 7 8 7 6 6 6 6 4 4 10 11 11 10 8 6 6 6 6 5 4 3 3 5 6 6 6 6 6 6 6 5 6 7 7 6 6 6 5 5 10
5 5 4 5 8 10 9 8 8 8 10 9 6 6 6 6 6 6 6 5 5 6 7 8 8 9 8 9 8 9 5 4 5 5 3 3 6 4 3 6 8 10 11 12 12 10 10 10 9 8 6 6 6 6 6 6 4 10 11 10 7 5 5 5 5 5 5 5 5 6 8 7 7 8 7 6 6 5 6 7 6 6 6 5 5 6 6
6 6 6 7 8 8 8 9 8 8 9 8 8 8 6 6 7 7 6 6 5 6 8 8 10 9 7 8 7 8 5 5 4 2 1 4 7 8 6 3 4 7 9 11 12 10 12 11 10 9 7 8 9 9 8 5 6 9 11 10 7 3 4 5 5 6 6 7 8 10 9 9 8 7 7 7 7 7 7 7 6 6 5 5 5 5 5
9 7 7 9 9 8 8 9 8 8 8 7 5 6 7 4 6 7 7 6 6 7 8 8 9 9 9 8 7 5 3 1 3 4 3 4 6 6 7 6 5 3 6 9 9 9 10 9 9 8 7 10 12 9 7 6 6 9 10 8 6 7 9 7 5 5 7 7 7 7 8 7 6 7 7 6 6 6 6 5 6 6 6 5 5 4 4
9 10 9 8 7 7 8 7 7 8 8 6 6 7 6 6 9 9 8 8 8 8 9 9 10 8 7 7 7 5 3 3 4 5 5 6 6 5 6 7 9 9 8 7 6 3 6 10 10 8 6 8 9 9 10 9 8 7 6 6 6 6 6 9 7 8 7 7 6 6 6 7 8 7 6 6 6 6 5 6 5 5 4 4 4 3 3
7 10 10 9 8 9 9 7 6 8 7 8 8 6 6 5 5 6 7 7 8 8 8 8 7 6 5 5 4 4 3 2 3 4 6 6 6 6 6 7 9 11 11 6 1 2 9 11 9 8 8 9 9 7 6 7 7 7 6 6 6 6 6 8 9 8 7 7 7 7 6 6 5 5 7 7 6 6 6 6 5 4 4 3 3 2 2
8 9 10 11 10 9 10 12 9 8 8 7 7 6 5 4 5 6 7 7 8 8 7 7 5 5 5 2 2 3 4 3 4 4 5 6 7 6 6 6 5 6 8 8 5 1 5 8 9 8 9 9 10 9 8 7 7 6 6 7 7 7 7 6 8 8 7 7 6 7 7 7 6 6 6 6 5 5 6 6 5 4 4 3 3 2 4
7 9 9 11 11 10 10 9 9 9 8 9 9 7 3 3 6 6 7 6 7 7 6 4 3 4 4 1 4 4 5 5 6 6 4 4 5 6 8 10 9 9 10 8 5 3 4 6 7 9 9 10 11 10 9 8 7 7 6 6 7 6 7 7 8 8 7 6 6 6 6 6 6 6 6 6 5 5 5 5 4 4 4 4 3 3 4
8 7 7 8 9 8 8 8 8 9 9 8 8 6 5 5 6 7 6 6 6 7 5 2 2 4 2 4 5 6 7 7 7 8 8 7 7 6 7 10 10 11 11 8 4 4 6 7 11 13 10 11 10 9 9 8 7 6 6 7 8 7 7 7 7 7 6 6 6 6 6 7 7 6 5 5 4 4 5 5 4 4 4 3 3 3 3
8 8 7 8 8 7 7 7 7 7 7 7 6 5 6 5 6 6 6 5 5 5 1 2 3 3 4 5 7 8 8 8 8 8 8 8 8 9 9 10 12 9 7 9 3 3 6 8 14 16 11 9 10 9 10 13 7 6 7 7 7 7 7 7 6 6 6 6 6 6 7 6 5 4 4 4 4 4 4 5 4 4 3 3 2 3 3
10 7 8 8 8 7 7 7 6 5 6 6 5 4 5 5 5 5 4 3 3 1 1 3 4 3 4 6 8 10 9 10 11 11 9 7 7 10 10 9 8 6 6 4 3 7 7 11 15 11 9 9 9 9 10 15 12 8 6 7 7 7 6 6 6 6 6 6 6 6 5 5 5 4 4 4 4 4 4 4 4 3 3 3 3 4 4
10 6 5 5 5 6 6 6 5 4 5 6 6 4 4 4 4 4 3 3 2 1 4 4 5 6 7 8 8 10 9 9 8 9 10 10 10 13 10 7 6 5 4 3 6 8 8 9 9 10 9 9 9 10 11 14 13 8 7 7 8 7 6 6 7 7 6 6 6 6 5 5 5 5 4 4 4 4 5 5 4 3 3 3 3 3 3
9 7 7 6 7 7 6 6 5 5 5 3 3 3 3 3 2 2 3 4 3 1 4 6 7 7 8 10 10 9 8 9 8 8 9 10 11 12 11 10 8 6 8 11 8 9 13 16 11 9 8 7 8 7 7 11 10 7 7 7 7 6 6 6 6 6 6 6 7 8 6 5 5 5 4 4 4 4 3 4 4 3 3 3 3 2 2
9 7 6 6 6 6 6 5 6 5 4 3 1 3 3 2 2 4 5 5 4 6 6 6 9 8 8 10 10 9 7 7 8 9 7 9 11 9 11 8 3 4 6 7 8 9 11 9 9 8 6 7 7 8 8 10 9 7 7 7 6 6 6 6 6 6 6 6 5 5 5 5 5 5 4 4 4 3 3 3 4 3 2 2 2 2 2
9 9 7 6 5 5 5 4 3 3 4 4 4 4 2 3 5 5 5 6 7 8 9 7 9 9 8 10 11 10 9 9 10 10 9 9 7 9 11 6 3 7 11 11 11 11 9 9 8 7 7 8 8 13 12 7 7 7 7 7 6 6 6 6 6 6 5 5 6 6 5 5 5 5 4 4 3 3 3 3 3 3 2 2 2 2 2
9 10 8 6 5 4 4 4 2 2 3 6 6 6 6 6 7 8 8 7 8 9 9 9 10 10 9 9 9 11 9 8 10 12 11 10 8 7 9 7 5 7 13 9 7 7 8 7 7 6 9 9 9 14 12 8 7 7 7 7 6 6 6 6 6 6 6 7 6 5 5 5 5 4 4 4 3 3 3 3 3 2 2 2 2 1 0
9 6 6 5 4 3 0 1 2 3 5 6 5 7 7 7 7 9 9 9 9 8 7 8 9 9 9 9 9 8 7 7 8 8 11 9 9 7 5 6 6 8 11 7 6 7 7 7 7 11 15 16 15 13 8 6 7 7 7 7 6 6 6 6 6 6 5 5 5 4 4 4 4 4 4 4 3 2 2 1 1 1 0 0 0 1 1
7 6 7 5 2 2 3 3 4 6 6 6 7 8 7 8 7 7 9 8 8 8 8 8 8 7 7 7 8 7 6 5 4 6 11 10 9 6 3 6 7 6 8 9 7 7 7 7 11 15 13 15 14 12 7 6 7 7 7 7 7 6 6 6 6 5 5 5 5 5 4 4 4 4 3 3 3 2 2 2 2 1 1 1 2 2 3
7 6 6 6 5 4 3 3 3 5 7 9 9 8 7 7 7 8 8 8 8 7 8 9 9 8 8 9 7 7 8 7 5 5 5 5 8 6 4 7 6 8 12 12 7 7 8 14 14 13 14 14 13 8 6 6 6 6 6 6 6 6 6 5 5 5 5 5 4 4 4 3 3 3 2 2 2 2 1 1 1 2 2 3 3 3 3
7 7 7 6 5 4 4 4 5 7 8 9 9 7 5 6 8 8 8 8 8 7 7 8 7 6 5 6 7 8 9 8 7 6 6 6 7 8 9 11 11 13 10 7 7 6 7 9 10 13 13 12 10 6 6 6 6 5 6 6 5 5 5 5 5 4 4 4 3 3 3 3 2 2 1 0 1 1 1 2 2 3 3 3 4 4 4
7 7 6 6 5 5 6 7 7 8 8 8 8 7 5 6 7 8 7 8 7 7 7 7 6 7 7 8 7 6 4 4 9 6 5 6 6 7 7 6 8 11 10 10 12 12 15 14 13 12 12 10 7 5 5 5 5 5 5 5 5 5 5 4 4 4 3 3 3 3 2 2 2 1 1 2 3 3 3 3 4 4 4 4 5 5 5
7 6 6 6 6 7 6 7 7 8 6 6 8 7 6 7 6 6 7 8 8 7 7 7 7 7 7 6 7 6 6 6 4 5 2 5 6 6 6 9 13 11 8 7 7 7 11 13 12 12 11 8 5 5 5 5 5 5 5 4 4 4 3 3 3 2 2 2 1 1 0 1 2 3 3 3 3 4 4 4 5 5 6 5 5 5 5
6 6 7 6 6 6 6 6 6 6 4 5 7 5 4 4 6 5 6 7 6 6 6 5 5 6 6 6 6 6 6 6 6 6 6 7 7 7 7 7 7 10 9 6 6 6 9 11 9 8 6 5 5 5 4 5 5 4 4 3 3 3 2 2 2 2 1 1 1 1 1 2 2 3 3 3 4 4 4 5 5 6 8 6 5 6 6
6 6 5 5 5 5 5 5 4 5 5 5 6 5 5 6 7 5 5 6 6 6 6 5 5 5 6 6 6 6 6 5 6 6 7 6 6 7 7 6 6 6 6 6 5 5 5 5 4 4 4 3 4 3 3 3 3 2 2 2 2 1 1 1 1 1 1 2 2 3 3 3 3 3 4 4 4 5 5 5 5 5 5 5 5 5 6
4 4 4 5 5 5 5 5 5 5 6 6 6 6 6 4 7 7 5 6 6 6 5 6 7 5 5 5 6 5 5 6 6 6 5 6 6 5 6 7 6 6 5 5 5 4 4 4 4 4 4 3 2 2 2 2 1 0 1 1 2 2 2 2 2 3 3 3 3 3 3 3 3 3 4 4 4 5 5 4 4 4 5 5 5 5 5
Wind_Direction
265 274 277 303 314 234 236 288 342 344 11 93 101 239 309 318 180 239 303 350 1 323 352 339 325 329 321 298 301 295 290 356 8 2 343 22 28 13 337 256 239 221 203 197 192 190 192 184 183 169 160 159 151 153 156 169 168 171 156 159 168 174 182 194 200 181 164 155 114 119 135 202 241 236 244 185 71 60 82 108 124 152 197 301 57 205 275
322 303 343 315 281 283 33 32 11 353 340 91 87 40 322 274 240 254 273 240 253 359 355 338 327 327 313 294 288 341 39 20 22 10 328 354 347 3 5 356 348 337 321 313 287 215 187 186 176 168 164 162 166 167 170 170 173 171 159 175 176 182 189 188 165 161 152 128 116 123 135 162 248 250 259 82 102 120 120 118 135 172 175 175 172 194 250
306 296 340 344 357 285 109 27 30 11 357 92 75 93 300 333 261 335 324 354 339 57 347 329 326 328 333 329 353 31 31 35 25 12 325 327 346 7 8 4 353 355 3 25 50 48 38 163 180 169 163 159 158 162 169 174 179 176 175 179 181 178 186 165 152 144 141 128 112 109 116 178 231 241 252 314 86 155 141 124 145 184 209 217 213 192 201
310 313 7 349 331 351 89 45 22 6 0 27 43 50 338 307 310 321 334 21 346 322 335 323 330 357 356 327 334 26 19 13 26 348 344 358 349 348 357 358 6 15 26 25 45 85 115 127 141 154 154 151 153 163 160 164 156 144 155 162 175 186 167 135 127 127 129 112 102 109 145 192 213 196 332 8 130 201 130 97 112 191 196 210 203 190 177
266 265 6 341 349 21 343 13 360 357 341 8 83 84 356 356 322 326 13 345 324 315 325 336 346 356 339 336 342 353 358 357 27 31 354 331 323 324 331 349 25 33 48 49 48 77 97 116 123 124 136 138 145 145 146 130 126 147 154 152 147 132 117 132 131 131 133 117 120 135 154 182 205 193 205 171 189 203 212 138 153 170 186 157 170 149 150
252 309 338 343 48 322 249 191 114 340 30 329 48 66 18 9 7 348 337 314 315 323 334 350 338 335 320 311 305 344 29 49 43 27 10 310 289 280 279 307 315 16 74 74 70 78 91 91 93 92 90 110 110 113 120 119 123 118 121 116 128 131 119 121 125 126 109 106 124 132 160 183 178 197 203 197 182 193 195 156 139 134 145 167 176 178 170
289 318 353 18 247 238 227 81 351 332 69 37 65 70 42 13 2 349 340 337 334 330 319 320 311 305 305 302 189 69 39 48 51 39 3 322 275 231 223 250 273 102 110 113 112 110 113 118 117 111 108 122 124 121 132 133 121 123 122 125 130 117 127 130 120 113 103 117 131 149 168 178 179 189 199 162 155 169 172 158 150 159 166 173 194 177 149
39 33 34 67 240 240 25 78 34 5 4 12 16 46 69 12 352 344 332 336 330 326 330 331 334 312 274 244 196 95 78 55 35 17 346 313 282 251 199 194 214 188 164 150 146 147 153 147 143 137 140 141 132 126 123 121 123 127 132 138 142 145 147 140 126 122 127 132 141 153 165 173 175 185 181 164 159 155 150 145 153 159 158 159 169 172 182
195 190 178 238 300 331 12 14 6 29 3 346 2 339 329 41 347 346 334 338 336 331 332 328 329 329 339 262 252 102 56 40 31 11 331 303 286 258 206 167 188 225 198 156 151 140 135 131 131 127 131 133 127 124 125 122 127 136 140 145 154 153 144 138 134 134 144 151 150 151 155 160 163 167 170 157 150 145 149 159 158 175 185 187 201 190 189
119 145 329 349 7 265 307 248 260 123 32 349 338 329 270 360 344 344 338 339 340 331 333 341 336 320 73 1 324 343 12 24 2 349 337 311 287 280 158 136 138 171 184 167 147 141 134 113 105 113 115 121 125 129 132 138 139 143 148 150 151 152 153 146 147 149 153 151 151 149 147 147 148 152 156 155 160 155 154 159 165 185 182 172 219 235 219
63 61 143 214 183 248 209 333 345 337 354 59 295 268 262 8 329 333 332 332 337 335 336 345 340 17 34 291 284 329 351 343 353 336 328 316 285 291 258 134 137 171 188 159 139 120 121 117 115 115 114 117 116 120 124 129 133 140 149 151 155 159 153 141 138 146 149 150 151 147 143 144 143 144 154 162 159 147 141 134 135 150 150 149 161 196 219
100 135 100 267 203 153 25 346 334 336 350 45 307 334 233 346 324 326 330 327 328 325 344 353 339 33 2 316 311 327 327 324 324 331 328 323 304 330 42 40 33 6 227 147 131 131 116 120 128 126 129 127 112 107 116 121 130 134 144 155 147 130 130 125 129 129 145 150 147 142 138 134 141 143 139 137 141 97 75 97 91 109 147 112 145 128 102
345 68 291 356 313 213 68 352 332 326 91 74 114 249 5 327 308 310 319 317 328 333 333 344 328 309 288 288 296 304 309 319 328 336 331 314 259 116 93 83 81 38 299 130 131 136 125 128 134 134 136 122 117 121 124 128 140 145 122 112 106 103 111 127 135 146 148 141 132 129 136 140 136 130 128 128 134 135 142 128 108 106 105 95 79 71 35
15 323 155 214 236 235 224 358 321 341 75 326 233 306 307 299 296 296 303 307 315 328 316 313 299 295 301 302 305 305 310 321 317 324 327 356 54 70 117 118 100 77 102 85 110 125 131 135 136 136 128 121 128 135 135 144 140 111 107 109 114 127 136 137 139 127 103 92 112 125 123 117 105 100 106 115 116 135 134 131 112 104 126 119 97 78 69
47 24 76 6 270 239 46 352 96 278 185 217 230 273 257 256 274 289 295 292 296 300 293 290 295 305 308 311 317 319 320 333 336 329 328 139 123 148 132 117 129 146 135 125 128 127 136 139 141 146 141 139 139 136 135 133 125 129 114 117 120 120 126 128 124 116 114 118 113 111 112 110 115 114 119 119 121 131 132 137 139 142 148 141 127 114 106
131 43 59 205 207 268 351 36 356 250 213 261 240 237 287 286 271 275 278 278 280 292 287 292 301 301 306 315 333 332 329 331 328 322 348 112 99 156 136 132 133 142 126 114 119 132 128 121 112 128 141 139 133 132 133 135 131 129 129 124 124 127 132 124 109 98 99 96 100 102 114 112 115 119 119 125 121 122 134 129 125 116 104 132 126 120 118
124 208 222 251 258 264 274 217 233 243 269 257 243 242 256 281 284 238 258 278 286 288 291 291 284 296 306 310 321 323 323 326 326 320 129 136 149 174 164 147 134 126 132 133 124 97 64 122 114 102 120 136 134 133 143 141 141 136 133 132 123 125 121 112 98 94 86 87 92 95 94 117 120 121 113 118 93 67 93 97 106 105 112 115 101 122 114
261 258 240 301 301 283 296 262 219 245 278 273 226 230 275 268 267 276 273 280 284 294 301 307 305 300 311 318 324 328 331 331 331 322 108 135 147 168 167 149 147 138 129 136 138 131 75 72 113 140 155 147 138 146 148 147 141 134 131 125 120 117 118 107 107 100 89 83 82 84 80 75 81 93 116 101 98 86 75 81 80 83 48 65 71 88 67
51 299 286 252 275 300 275 276 279 255 237 246 247 273 248 265 278 288 284 272 282 291 305 299 298 307 320 317 319 324 325 337 334 327 323 335 200 183 180 169 146 143 149 157 159 156 168 185 186 198 189 199 153 141 133 132 131 122 118 114 114 109 104 101 94 94 93 94 85 67 59 59 57 52 34 58 72 55 42 44 67 100 33 349 17 20 39
154 224 271 283 286 270 275 252 279 313 314 308 284 250 262 267 274 276 283 293 292 300 302 301 305 304 312 317 320 323 327 333 339 335 346 344 346 344 324 237 171 152 154 154 158 163 179 190 195 204 192 143 150 127 117 120 119 110 104 105 104 98 94 92 85 95 108 104 94 68 47 36 32 23 21 30 56 51 44 25 51 71 72 77 70 81 91
278 293 298 300 322 340 281 279 281 274 271 294 305 306 300 293 292 295 294 274 278 292 288 297 301 304 309 314 310 311 321 336 2 356 338 325 313 329 310 289 239 180 155 145 148 161 182 195 1 358 135 165 151 117 113 112 111 101 96 92 90 85 85 84 97 100 88 96 93 93 78 66 58 46 27 19 55 69 43 5 311 78 102 95 85 76 69
327 238 276 351 5 303 297 305 300 304 307 308 298 301 306 311 308 305 304 303 290 274 278 287 294 301 303 306 303 309 310 308 265 72 6 344 352 22 31 4 335 325 49 111 131 154 168 103 57 360 252 176 124 112 112 109 101 87 78 73 73 69 70 88 93 89 83 91 101 105 104 102 92 69 54 51 30 56 61 43 47 30 29 91 92 105 91
250 254 255 230 220 262 261 270 287 294 295 300 299 298 304 305 294 289 296 301 309 312 297 277 282 289 296 303 306 304 311 286 243 90 68 49 33 55 89 72 16 350 344 41 56 64 54 60 57 31 283 227 109 98 97 92 85 76 67 67 70 60 56 62 92 97 103 106 114 116 121 120 113 109 92 56 49 47 58 72 67 66 66 65 63 62 106
261 266 263 244 191 250 283 285 288 289 288 288 284 288 291 285 283 290 294 284 288 297 300 296 280 280 291 301 309 309 318 281 238 98 91 77 127 126 75 114 122 93 347 16 39 34 26 32 55 38 303 284 118 114 110 107 103 97 88 77 40 23 69 73 103 113 115 133 131 123 122 125 126 126 112 101 66 46 52 68 68 67 65 63 63 67 66
247 253 275 274 260 268 270 274 277 278 281 274 281 292 292 293 291 291 293 294 283 279 291 301 302 299 296 302 308 306 294 222 220 139 111 98 119 128 134 114 107 110 84 45 35 48 58 59 57 31 305 306 44 115 121 122 119 119 123 116 103 38 81 125 132 138 137 136 136 132 134 132 129 129 127 115 107 95 51 61 76 70 59 58 62 64 67
256 285 289 280 275 272 279 302 284 268 285 299 298 292 291 287 290 302 303 299 295 291 287 292 298 301 303 300 294 278 257 215 189 158 150 153 178 135 115 108 97 89 99 88 63 21 62 76 72 39 333 343 302 144 124 114 108 109 109 102 104 120 111 111 107 115 118 125 123 121 116 115 116 112 103 107 117 119 117 119 91 72 64 51 46 65 63
265 247 295 321 305 295 275 258 281 300 304 303 297 288 285 284 295 295 284 280 277 282 282 281 280 286 290 276 276 267 255 222 206 189 180 162 158 179 149 142 131 123 111 105 96 87 82 73 73 60 14 359 326 311 163 127 120 117 110 104 103 129 134 117 94 90 96 119 129 125 124 118 114 108 110 113 114 108 97 87 76 63 48 47 38 40 57
270 257 190 265 280 290 284 282 284 291 292 290 293 292 290 300 299 302 307 312 315 300 281 276 284 290 293 294 302 293 252 209 211 210 192 163 143 163 190 144 128 120 111 103 97 95 93 78 73 64 41 8 350 334 301 119 126 117 108 100 97 89 84 89 100 101 87 63 86 108 114 115 112 113 114 111 101 98 96 89 87 86 74 59 61 50 65
268 266 254 234 254 265 275 280 285 283 285 289 288 284 297 307 302 301 302 298 294 299 295 287 277 279 287 300 309 299 260 221 214 217 208 126 115 116 150 132 126 120 115 111 108 109 103 96 94 86 61 38 27 10 357 6 53 100 100 95 94 99 100 87 84 86 92 101 101 102 104 108 109 109 101 94 93 92 87 87 88 87 95 109 100 75 60
276 279 281 279 277 283 292 294 288 292 293 299 312 312 312 309 308 307 304 299 295 290 286 289 292 293 299 300 304 295 263 226 211 207 183 126 122 130 130 122 107 105 106 114 124 129 123 125 121 111 93 68 52 32 12 17 55 76 84 85 77 61 94 93 96 100 102 98 96 94 94 95 95 98 98 96 98 92 92 97 99 103 103 94 86 78 80
293 289 280 278 282 283 277 278 284 283 286 293 303 305 308 300 293 301 304 293 290 288 288 288 288 294 301 297 302 284 300 84 149 159 135 116 124 124 128 132 127 134 132 133 128 136 133 118 107 106 122 117 100 81 56 25 45 71 84 92 108 104 98 100 93 96 94 94 91 93 95 95 99 100 101 99 92 84 84 87 95 89 91 85 82 84 81
294 297 295 287 280 281 284 283 283 282 284 295 311 316 313 313 309 308 305 303 296 295 293 290 286 294 299 304 303 276 233 170 144 133 118 108 111 112 103 97 90 73 41 45 71 41 88 100 108 117 124 110 107 121 133 134 121 107 104 116 118 113 100 98 91 85 88 93 91 88 93 100 102 99 93 91 97 105 108 94 70 57 50 62 65 33 3
296 302 304 298 295 288 286 282 275 291 304 307 301 290 287 277 274 281 293 296 298 298 293 286 294 319 315 314 318 316 280 160 113 116 113 107 106 114 124 124 125 125 125 114 61 195 125 119 127 140 128 113 113 115 111 109 111 110 112 108 106 101 97 94 96 93 85 90 88 89 84 80 84 90 95 95 87 80 73 77 80 75 65 56 59 38 32
267 272 280 285 281 287 294 296 298 295 292 284 279 285 291 297 284 279 289 291 294 296 288 292 311 314 309 308 24 32 20 38 69 71 88 115 124 127 114 101 82 87 88 85 83 103 116 122 133 131 119 115 110 104 98 94 92 93 95 98 95 97 98 96 88 86 84 76 76 80 78 79 73 74 74 79 84 92 94 93 91 88 85 75 65 66 51
252 262 269 273 275 272 274 275 282 285 285 290 297 300 319 317 299 290 293 303 308 304 294 301 301 306 315 21 65 50 53 65 85 100 72 70 83 95 107 102 91 78 71 59 73 91 89 103 112 108 104 102 99 98 98 95 98 99 100 100 98 89 84 77 77 82 84 85 82 78 73 70 73 75 76 75 78 88 93 93 96 95 96 82 62 46 45
285 281 280 280 278 273 268 264 264 265 269 271 277 296 320 314 299 297 305 308 306 295 281 319 341 339 3 87 89 85 81 77 76 70 64 60 60 61 76 91 93 90 91 77 37 77 96 108 111 106 105 99 96 96 98 100 92 93 90 89 86 84 81 79 80 80 79 89 86 83 81 87 84 79 78 83 86 89 97 97 92 90 91 81 74 61 51
289 287 284 282 284 281 272 268 265 268 268 272 285 307 309 303 298 295 296 307 309 306 322 52 26 27 69 96 103 90 80 77 70 70 77 89 92 88 86 89 88 94 105 98 41 49 101 104 103 98 94 92 91 93 98 98 91 89 88 89 92 91 87 84 80 84 78 79 81 80 84 77 64 63 78 93 100 103 100 98 96 88 78 83 80 82 74
296 291 287 286 289 288 281 275 278 275 278 289 298 302 301 298 295 306 335 356 348 347 47 71 80 74 81 82 83 85 91 99 105 108 99 76 71 78 68 66 69 75 84 80 111 105 104 98 93 89 87 88 93 97 102 103 102 98 93 95 96 95 92 93 90 87 88 86 86 81 79 84 90 86 80 77 80 85 87 90 89 84 78 68 64 66 70
299 302 296 294 292 289 290 293 292 282 275 286 300 299 290 289 313 359 11 9 338 156 117 96 83 76 72 66 72 84 85 86 91 93 93 92 86 78 69 62 63 72 100 96 97 97 90 87 84 83 79 86 88 88 92 94 93 90 93 93 95 97 97 95 99 98 97 98 92 92 90 91 91 94 85 79 77 77 80 82 84 79 72 65 69 71 66
306 310 312 317 314 311 306 297 300 296 289 274 288 294 295 292 3 49 43 51 27 35 103 105 100 97 93 87 82 82 92 99 99 92 93 98 91 91 84 62 50 65 85 90 91 92 93 87 81 79 85 85 89 90 90 93 90 87 89 90 93 92 92 97 98 95 89 91 95 97 92 93 92 88 87 83 75 74 71 68 70 72 77 73 72 70 77
313 312 316 321 316 309 304 309 311 310 323 337 302 282 285 284 78 74 77 71 52 55 58 89 104 100 102 105 102 98 84 72 75 78 77 87 86 86 89 86 46 69 83 90 98 93 84 84 92 92 86 85 85 91 90 82 84 86 90 91 93 91 90 89 90 92 99 98 97 93 95 96 87 80 77 76 77 73 70 70 73 67 65 81 77 76 71
322 320 315 322 324 313 309 297 293 322 347 359 11 355 350 74 67 72 69 76 77 73 75 69 83 93 92 94 96 86 75 71 73 71 67 72 87 104 95 78 41 77 82 77 78 82 86 84 82 89 92 89 86 89 90 84 86 87 87 86 86 88 90 92 91 91 89 90 89 92 91 87 91 90 84 83 80 70 71 74 75 77 77 84 86 83 86
324 324 328 324 320 319 315 296 309 325 9 39 40 39 36 65 77 72 63 55 64 74 77 80 78 75 75 75 79 84 83 86 87 84 74 58 55 64 98 113 94 87 88 84 81 85 86 90 93 94 99 98 98 96 89 86 88 89 91 91 88 90 88 88 93 91 90 88 85 84 86 91 97 106 99 93 84 79 80 86 86 81 72 76 97 120 293
321 327 335 332 327 319 78 20 10 34 61 59 67 78 76 75 81 93 92 87 80 75 74 79 80 82 82 83 81 78 78 81 89 92 93 88 71 50 56 90 92 100 99 95 91 89 86 89 93 101 100 98 96 91 89 90 91 92 93 93 92 89 90 88 84 88 89 89 93 97 106 112 113 109 115 116 110 104 86 89 72 84 322 33 311 317 292
339 344 336 338 13 69 79 72 89 89 85 76 64 65 69 76 75 79 84 85 91 93 84 77 79 77 74 72 75 85 83 61 53 95 104 103 101 93 90 98 99 99 94 93 88 87 87 90 97 97 96 95 95 94 91 91 93 94 95 96 97 96 93 90 92 92 94 101 106 112 114 118 120 125 125 127 132 133 151 165 202 220 229 256 271 270 271
5 9 15 44 64 86 115 118 89 86 92 87 74 62 58 66 70 66 66 71 68 63 78 86 84 82 87 87 78 68 64 63 51 37 59 91 105 129 118 101 100 97 91 87 86 90 96 99 95 94 96 96 95 90 91 93 93 94 92 94 92 94 92 95 95 97 103 108 117 120 123 122 125 139 145 138 131 142 176 219 251 264 241 253 260 256 262
16 27 33 46 57 55 59 62 75 84 84 81 77 67 56 73 83 80 77 75 76 75 80 86 92 95 90 92 96 99 99 87 51 35 55 63 83 91 86 88 86 88 87 90 95 96 100 97 94 95 96 95 93 93 93 93 91 90 91 91 93 92 95 97 104 112 114 114 114 116 113 105 104 102 79 40 306 264 262 266 262 261 257 257 262 263 263
18 29 31 35 44 49 60 66 73 73 72 81 85 81 69 59 65 75 77 77 72 70 67 62 62 62 66 69 63 56 45 71 99 60 19 70 73 83 86 88 93 94 92 92 93 94 95 93 90 87 87 87 86 90 96 93 92 92 92 92 90 93 99 103 111 112 111 87 85 78 82 82 95 103 182 247 254 262 259 255 254 256 248 240 247 251 255
15 25 37 38 40 49 65 80 81 79 76 81 88 90 85 85 78 78 82 80 76 65 61 54 53 52 54 53 59 46 47 27 54 114 76 69 81 80 80 82 83 81 83 84 86 87 92 91 90 90 87 83 83 85 84 85 88 88 88 90 96 98 105 108 118 96 91 90 73 82 90 207 226 206 230 235 236 239 239 247 248 246 250 252 259 255 251
22 29 35 35 39 41 46 60 71 80 73 84 92 87 88 102 96 78 79 84 85 80 67 55 51 46 50 54 54 63 60 65 67 77 81 78 77 73 74 76 79 81 80 78 80 82 97 94 92 94 92 90 88 83 83 84 82 86 83 81 78 69 67 71 84 94 130 121 129 181 209 226 245 253 255 256 259 253 251 249 257 263 267 262 261 260 262
29 37 29 34 48 58 65 82 98 101 97 80 86 102 108 98 90 77 79 96 90 81 77 69 53 56 63 63 65 61 58 61 65 69 72 71 72 79 78 76 75 75 69 68 72 78 71 71 70 65 75 82 91 92 96 101 95 81 86 76 79 80 109 116 151 199 235 240 238 259 261 271 277 280 274 267 271 274 272 273 272 271 276 274 275 273 273
23 32 41 45 52 56 59 59 58 71 83 88 93 94 90 91 96 91 72 86 94 96 96 95 82 54 71 83 76 65 63 66 62 62 66 70 69 65 63 67 62 61 63 70 71 66 59 53 69 106 121 102 78 49 24 42 62 47 111 152 178 194 207 229 219 237 252 255 256 266 276 268 253 260 263 258 256 262 272 274 274 277 282 287 288 294 301